This is the latest recevied weather packets stored in our database for station/object N1ICS-1. If no packets are shown the sender has not sent any weather packets the latest 10 day(s).
| Time | Temp. | Humidity | Pressure | Rain* | Wind** | Luminosity | Snow |
|---|---|---|---|---|---|---|---|
| 1777755302 | 8.33° C | 50% | 1019.1 hPa | 0 mm | - | 286 W/m² | - |
| 1777755002 | 8.89° C | 52% | 1019.1 hPa | 0 mm | - | 218 W/m² | - |
| 1777754702 | 8.89° C | 54% | 1018.9 hPa | 0 mm | - | 186 W/m² | - |
| 1777754401 | 8.89° C | 53% | 1018.9 hPa | 0 mm | - | 263 W/m² | - |
| 1777754102 | 8.89° C | 50% | 1018.9 hPa | 0 mm | - | 403 W/m² | - |
| 1777753802 | 8.89° C | 52% | 1019.1 hPa | 0 mm | - | 625 W/m² | - |
| 1777753502 | 8.33° C | 51% | 1019 hPa | 0 mm | - | 267 W/m² | - |
| 1777753201 | 8.33° C | 51% | 1019.2 hPa | 0 mm | - | 252 W/m² | - |
| 1777752901 | 8.89° C | 52% | 1019.2 hPa | 0 mm | - | 337 W/m² | - |
| 1777752602 | 8.33° C | 50% | 1019.2 hPa | 0 mm | - | 364 W/m² | - |
| 1777752302 | 8.33° C | 50% | 1019.2 hPa | 0 mm | - | 302 W/m² | - |
| 1777752003 | 8.89° C | 54% | 1019.3 hPa | 0 mm | - | 349 W/m² | - |
| 1777751702 | 8.33° C | 54% | 1019.1 hPa | 0 mm | - | 385 W/m² | - |
| 1777751402 | 8.89° C | 53% | 1019.3 hPa | 0 mm | - | 300 W/m² | - |
| 1777751102 | 8.33° C | 51% | 1019.3 hPa | 0 mm | - | 301 W/m² | - |
| 1777750801 | 8.89° C | 55% | 1019.4 hPa | 0 mm | - | 610 W/m² | - |
| 1777750502 | 8.89° C | 53% | 1019.4 hPa | 0 mm | - | 430 W/m² | - |
| 1777750202 | 8.33° C | 51% | 1019.4 hPa | 0 mm | - | 365 W/m² | - |
| 1777749901 | 8.89° C | 51% | 1019.4 hPa | 0 mm | - | 375 W/m² | - |
| 1777749602 | 8.33° C | 51% | 1019.6 hPa | 0 mm | - | 337 W/m² | - |
| 1777749302 | 8.89° C | 54% | 1019.4 hPa | 0 mm | - | 334 W/m² | - |
| 1777749003 | 9.44° C | 51% | 1019.4 hPa | 0 mm | - | 347 W/m² | - |
| 1777748702 | 9.44° C | 50% | 1019.6 hPa | 0 mm | - | 629 W/m² | - |
| 1777748401 | 8.33° C | 52% | 1019.6 hPa | 0 mm | - | 1259 W/m² | - |
| 1777748102 | 8.33° C | 56% | 1019.5 hPa | 0 mm | - | 302 W/m² | - |
* Rain latest hour (hover to see other rain measurements)
** Current wind speed in m/s (hover to see current wind gust speed)